Lid_Strength_Index
3 3 3 3 3 3 3 3 3 4 4 3 3 3 3 3 3 3 3 3 3 3 3 3 3 3 4 8 7 0 -1 -1 -0 1 2 3 5 5 6 5 5 7 6 5 4 7 7
3 3 3 3 3 3 3 3 3 3 3 3 3 3 3 4 4 4 4 3 4 4 3 3 3 3 5 8 5 -1 -0 0 1 1 2 3 4 4 5 5 6 5 5 5 6 7 7
3 3 3 3 3 3 3 3 3 3 3 3 3 4 4 4 4 4 4 4 4 4 3 2 3 4 7 7 2 2 0 2 0 1 3 2 3 4 4 6 4 5 7 6 6 6 7
2 2 2 2 2 2 2 3 3 3 3 3 3 4 4 4 4 4 4 4 4 3 2 2 3 4 8 6 6 5 4 4 2 2 3 2 2 3 4 4 6 7 8 8 6 6 6
2 2 2 2 2 2 2 3 3 3 3 3 4 4 4 4 4 5 5 5 4 3 2 2 4 7 9 4 6 5 3 6 5 2 1 1 2 4 4 6 8 8 9 8 7 6 6
1 2 2 2 2 2 2 3 3 3 3 3 4 4 4 5 5 5 5 5 5 3 3 2 4 8 7 8 7 6 5 5 6 5 4 4 4 6 6 7 10 9 9 9 9 6 6
1 1 1 2 2 2 2 3 3 3 3 3 4 4 5 5 5 6 6 8 9 9 9 10 9 10 8 7 6 7 6 6 7 6 8 5 8 9 7 7 6 7 8 9 7 6 7
2 2 2 2 2 2 3 3 3 3 4 4 4 4 5 5 6 6 8 10 11 10 11 10 10 10 8 8 9 7 6 8 7 9 6 7 9 6 6 6 7 8 9 9 7 7 7
2 2 3 3 3 3 3 3 4 4 4 4 4 5 5 6 6 7 9 10 8 9 11 10 9 10 8 8 9 8 7 8 8 9 8 9 8 6 7 7 8 8 9 9 9 7 7
3 3 3 3 4 4 4 4 4 4 4 4 5 5 6 7 7 9 8 9 8 9 12 11 10 9 8 8 9 7 7 7 9 9 8 8 6 7 7 8 7 9 7 7 8 9 11
3 3 4 4 4 4 4 4 4 4 4 5 5 5 6 7 8 9 8 8 8 10 16 11 9 6 8 9 8 7 6 8 9 9 9 9 8 7 8 7 6 8 6 7 8 9 10
3 3 4 4 4 4 4 5 5 5 5 5 5 6 7 9 9 8 8 8 10 13 17 12 10 10 10 9 9 8 7 7 7 9 8 9 7 7 6 6 6 6 7 8 9 9 12
3 3 3 3 4 4 4 5 5 4 5 5 6 7 8 8 9 8 8 9 13 15 12 13 12 10 11 11 10 9 9 8 9 11 10 9 8 7 6 7 6 6 8 11 12 13 13
3 4 4 4 4 4 4 4 5 5 5 6 7 8 8 8 7 8 10 10 16 14 13 11 11 11 12 10 9 9 9 9 8 8 10 11 11 8 6 7 8 8 8 11 14 13 12
4 4 4 4 4 4 4 4 4 5 6 6 8 9 9 8 8 9 9 13 14 13 12 11 11 12 11 10 10 9 9 9 8 6 10 10 10 6 7 6 6 8 9 7 10 11 12
4 5 5 5 5 5 5 5 5 5 6 7 10 10 9 8 8 10 11 14 13 12 11 11 13 11 12 10 10 9 9 7 8 6 6 8 11 7 7 6 6 7 6 10 9 13 14
4 4 5 5 5 6 5 5 5 6 7 8 10 9 8 9 8 9 13 13 12 9 10 11 11 11 10 10 10 10 9 7 6 6 6 7 9 9 7 8 8 8 9 8 9 10 13
4 4 4 4 4 5 5 5 5 7 8 10 11 11 8 8 10 12 12 12 11 9 8 9 9 9 9 9 9 9 9 8 5 6 8 6 8 11 9 6 6 7 8 8 11 12 10
4 4 5 5 5 4 5 5 5 7 9 11 12 12 8 8 12 12 11 11 10 9 9 8 8 7 7 8 10 8 8 6 5 6 7 7 9 11 10 8 7 9 9 9 10 9 11
3 3 4 5 5 5 5 4 5 6 7 10 10 11 10 10 12 12 12 12 11 8 8 7 7 6 7 8 7 9 8 6 5 6 6 5 9 10 12 11 9 10 10 10 10 12 10
4 3 4 4 5 4 4 4 5 6 7 10 10 12 12 12 12 12 12 11 11 10 8 7 7 7 8 10 9 9 8 7 6 5 6 7 10 9 9 9 9 9 9 11 11 12 13
3 4 4 4 4 4 4 3 4 6 8 8 10 10 11 11 12 12 12 11 11 10 10 8 8 7 7 9 8 9 8 8 8 6 7 7 10 9 10 8 9 10 10 10 11 11 11
3 3 4 4 4 4 4 3 4 6 8 9 10 10 10 12 12 12 10 11 10 10 9 8 7 8 8 7 6 6 5 6 6 8 8 9 9 11 12 9 9 12 12 12 12 11 12
3 4 4 4 4 4 4 3 4 6 7 8 9 10 10 11 11 11 11 10 10 9 10 9 8 8 5 5 4 4 5 6 7 7 6 9 10 10 12 11 15 12 9 9 11 11 10
3 3 4 4 4 4 4 3 2 5 7 7 9 10 10 10 10 10 10 9 9 9 9 9 7 5 5 5 8 10 9 9 9 7 8 7 10 12 13 12 11 11 10 10 11 12 9
1 2 3 4 4 4 4 3 2 4 6 5 8 9 9 10 9 8 9 10 9 9 9 8 6 5 4 7 9 13 14 13 12 11 7 8 9 12 11 14 14 12 9 7 8 14 8
0 2 3 4 4 4 4 3 2 3 5 7 7 8 8 9 7 8 9 9 9 9 10 9 8 8 5 8 10 12 12 10 13 14 13 11 12 13 12 13 12 10 8 7 15 13 8
0 2 3 4 4 4 4 3 2 2 5 6 7 6 6 9 8 8 7 8 8 8 9 8 8 7 7 10 11 10 12 10 12 10 12 12 14 14 13 15 15 8 9 12 9 7 7
0 1 2 3 3 4 3 3 2 1 3 4 6 6 5 7 7 7 6 5 5 5 7 7 9 8 7 8 9 9 11 10 11 13 9 12 10 12 12 12 8 7 8 6 6 7 6